Vertical_Velocity
-1 -3 2 5 3 9 -30 20 -2 7 11 11 4 5 -2 -0 -2 1 -13 57 14 8 6 2 2 1 -1 -2 -1 -1 1 5 -2 14 -6 0 3 1 3 -5 4 1 -2
-5 -0 1 2 1 -1 16 2 1 1 23 20 3 1 -4 9 10 -10 -25 -6 -6 -1 2 1 3 1 1 -2 -1 -4 1 4 4 -5 0 -6 0 -3 2 -0 20 15 -12
-5 -3 -1 1 1 -0 -2 -0 2 2 10 20 -8 7 -1 9 18 2 -33 -29 -33 6 -0 2 3 3 -2 -6 3 -1 0 -4 -2 3 0 -1 3 -0 9 12 -3 0 3
-2 -3 -7 -3 0 5 2 3 6 -0 5 1 3 5 -4 2 4 -4 1 -3 1 9 3 1 -0 -3 -4 7 -3 3 -1 -2 -2 6 -4 -6 -9 8 16 -3 1 -3 2
-5 1 -14 -2 7 -13 3 40 0 15 3 -5 5 -5 -2 -2 8 10 11 14 7 4 4 1 1 -1 0 1 -3 -1 -4 -4 -2 2 -0 -3 8 -3 -2 -2 -3 5 7
-2 -2 -3 6 -1 8 6 18 -18 11 57 4 13 4 3 2 6 2 -2 -2 1 0 2 -5 -5 -6 -1 0 2 2 -0 -3 -1 3 -4 3 12 -0 1 -6 -1 0 -3
-2 -1 3 -3 6 -1 7 4 -25 15 -1 8 -0 -0 -1 -0 3 -1 3 -0 -2 -5 -2 -6 -7 -1 1 2 2 1 6 9 -1 3 1 11 9 3 2 1 0 9 -2
-5 -2 2 1 -1 -2 5 7 8 1 1 4 -11 8 4 -4 2 3 -3 -1 -0 -2 -3 -3 -3 -2 5 2 2 3 0 11 -5 9 4 2 3 21 6 10 8 4 6
1 -0 0 3 4 4 -2 -0 2 0 1 -3 -2 22 6 8 6 7 5 -0 3 0 -2 -0 -3 -2 4 4 4 3 -4 -2 -2 2 4 -0 3 22 -2 3 2 3 -0
1 -3 -2 -1 1 2 1 1 -2 -1 2 11 3 5 25 19 17 30 3 5 1 2 -0 2 -3 2 2 1 0 2 -1 -4 -1 -1 -4 8 3 1 0 1 3 4 2
-0 1 -0 1 0 -1 -1 1 -2 -2 3 5 1 5 8 10 13 0 27 -2 1 2 -0 -7 1 5 5 -0 4 -2 5 -0 2 -0 -7 3 -1 -0 2 0 -3 5 8
-2 0 0 -0 0 -0 0 -2 1 3 2 2 2 6 5 7 21 20 9 -4 -3 -1 6 2 -1 5 -1 -3 2 4 -0 2 1 1 1 -0 7 9 1 6 6 0 7
0 1 -0 -1 -1 -1 -1 2 -0 -2 -3 -1 2 2 3 -0 1 15 8 5 12 12 5 22 7 2 4 5 1 8 5 2 2 4 1 4 -1 1 4 10 6 5 4
0 -0 -1 -1 -0 -1 -1 -2 -1 0 -1 -0 -3 -4 -4 -1 -3 -1 -2 -5 6 -10 4 12 6 -2 9 3 5 6 3 2 6 6 -0 4 4 4 8 5 4 5 6
-0 -0 0 -0 -0 -1 -0 -0 -1 -3 -4 -3 -3 -4 -3 -3 -3 -0 -3 -2 -1 -11 -2 -8 7 3 3 -5 1 4 1 6 7 5 5 3 3 4 6 3 4 6 6
0 1 -1 -1 -1 -0 -2 -3 -3 -3 -1 -1 -1 1 1 0 -1 1 -2 -5 -4 -3 -1 3 3 -3 -5 -1 -3 4 -3 -2 2 4 3 3 3 4 4 1 4 1 1
-4 -4 -3 -2 -1 -2 -2 -2 -3 1 -1 -2 0 -1 -1 0 -2 -2 0 2 1 3 2 1 -3 -1 -4 -1 -2 -1 -2 -1 2 1 1 0 1 0 2 2 2 -1 -0
1 2 1 -1 -2 -2 -3 -3 -2 -4 -3 -0 -1 -2 -1 -4 -4 -2 -0 1 -0 -1 -1 -1 -5 -4 0 0 -0 -0 -0 1 0 -0 1 -0 1 -0 1 -0 1 4 0
-4 -3 -2 0 1 0 0 -0 1 2 -1 -3 -5 -4 -2 -1 -1 -1 -0 -1 -2 -2 -1 0 0 -3 -2 1 1 1 1 2 1 3 0 3 2 2 3 2 2 1 1
-6 -5 -5 -6 -4 -4 -5 -4 1 2 -2 -1 3 -1 -2 -3 -2 -1 -1 -2 -2 -2 -2 -3 -3 -1 -1 -1 -1 0 -0 -1 2 0 -1 1 -2 -0 -2 -0 -1 -2 -2
-3 -4 -5 -6 -6 -5 -4 -2 -0 -1 -2 -3 -2 0 -0 -1 -0 -3 -3 0 -1 -2 -3 -2 -1 0 1 0 1 -0 -1 -1 -1 1 0 -1 -1 -0 -0 -0 1 1 -1
-2 -3 -3 -3 -2 -1 -0 -3 -6 -6 -6 -4 -5 -4 -1 -2 -1 1 2 -0 0 2 3 2 1 -0 -2 -0 -0 -1 1 1 0 2 0 -0 1 1 -0 -1 -2 -0 -1
-4 -3 -2 -3 -2 -3 -3 -2 -2 -1 -1 -1 -0 -1 -2 0 -0 -1 -1 0 1 1 0 -0 -0 0 1 0 -0 -0 -0 0 -0 -2 -0 0 0 0 0 1 0 -1 -0
-2 -2 -2 -2 -1 -1 -1 -0 0 0 0 -1 -1 -2 -2 0 -1 -1 1 -1 -1 1 2 1 1 -0 -0 0 -1 0 2 1 0 1 1 -0 1 -1 1 2 1 1 1
-4 -4 -3 -3 -3 -2 -2 -2 -2 -2 -1 -2 -2 -2 -2 -2 -2 -2 -3 -0 -0 -1 1 0 2 2 3 2 3 2 2 2 0 -0 0 2 2 1 2 -1 -1 1 2
-4 -3 -3 -2 -2 -3 -2 -2 -2 -1 -1 -0 0 -0 0 0 -1 0 -3 0 0 0 -1 -0 -1 -1 -2 -1 1 1 1 2 2 1 1 2 2 2 -1 2 0 2 1
Height
2963 2961 2959 2958 2958 2959 2961 2965 2968 2973 2976 2978 2981 2985 2989 2995 2999 3003 3004 2996 3011 3018 3026 3029 3029 3028 3029 3031 3034 3036 3039 3041 3042 3044 3048 3052 3054 3056 3057 3060 3062 3064 3066
2958 2956 2955 2954 2953 2956 2957 2958 2961 2966 2968 2971 2975 2979 2982 2987 2993 2996 3001 3004 3007 3011 3017 3020 3021 3021 3022 3025 3027 3029 3031 3034 3036 3036 3040 3043 3047 3049 3050 3051 3053 3054 3054
2953 2952 2950 2949 2948 2949 2951 2953 2955 2958 2961 2963 2968 2971 2976 2982 2987 2992 2989 2988 2999 3005 3009 3011 3012 3013 3015 3017 3020 3022 3024 3026 3028 3029 3032 3034 3038 3041 3041 3041 3041 3046 3051
2948 2946 2946 2944 2943 2944 2944 2944 2948 2951 2952 2957 2962 2966 2970 2976 2979 2983 2984 2989 2994 2998 3002 3003 3004 3006 3008 3009 3011 3013 3016 3018 3020 3020 3021 3024 3027 3030 3030 3032 3034 3039 3043
2945 2941 2939 2936 2935 2934 2935 2927 2940 2942 2942 2945 2954 2959 2963 2966 2973 2977 2979 2982 2986 2990 2992 2994 2996 2998 3000 3002 3003 3005 3006 3007 3008 3010 3010 3014 3016 3018 3021 3025 3028 3032 3035
2943 2939 2937 2934 2931 2931 2931 2930 2931 2936 2935 2941 2946 2951 2956 2961 2966 2969 2972 2974 2979 2982 2984 2987 2989 2992 2993 2995 2995 2996 2997 2997 2996 2996 3000 3004 3006 3011 3013 3017 3021 3023 3026
2942 2938 2934 2932 2929 2926 2925 2926 2927 2930 2934 2933 2940 2945 2949 2954 2958 2962 2966 2969 2972 2974 2977 2981 2983 2985 2987 2988 2987 2986 2986 2986 2986 2988 2991 2995 2998 3001 3006 3010 3013 3018 3022
2943 2938 2933 2930 2928 2925 2922 2922 2924 2926 2927 2932 2931 2936 2942 2946 2951 2954 2959 2962 2965 2968 2970 2974 2976 2978 2981 2981 2981 2979 2978 2978 2979 2981 2982 2986 2990 2993 2999 3004 3007 3011 3015
2943 2939 2934 2931 2927 2925 2923 2921 2921 2920 2920 2919 2924 2928 2933 2936 2942 2947 2951 2954 2958 2961 2964 2966 2969 2972 2974 2975 2974 2974 2973 2972 2973 2974 2977 2980 2982 2987 2991 2995 2999 3003 3008
2945 2940 2936 2933 2930 2927 2924 2922 2920 2920 2919 2920 2921 2924 2921 2924 2931 2935 2939 2945 2949 2953 2957 2959 2962 2964 2966 2968 2969 2969 2968 2968 2967 2969 2971 2974 2978 2982 2984 2989 2993 2995 3000
2947 2944 2941 2938 2934 2930 2928 2926 2924 2923 2921 2921 2921 2921 2920 2924 2927 2928 2931 2936 2942 2946 2950 2954 2956 2958 2960 2962 2962 2963 2964 2965 2965 2966 2967 2971 2974 2976 2979 2982 2985 2989 2992
2950 2948 2945 2942 2938 2936 2933 2931 2929 2927 2926 2924 2923 2923 2921 2922 2922 2925 2926 2931 2935 2940 2944 2946 2948 2951 2952 2955 2956 2956 2958 2959 2960 2962 2964 2966 2968 2971 2973 2975 2978 2981 2983
2952 2949 2947 2944 2941 2940 2938 2935 2934 2932 2931 2928 2926 2925 2923 2923 2923 2924 2924 2927 2929 2931 2934 2934 2937 2941 2943 2945 2948 2948 2950 2952 2953 2955 2957 2958 2960 2963 2965 2967 2968 2971 2974
2954 2952 2950 2948 2945 2943 2941 2939 2937 2935 2933 2931 2930 2928 2927 2926 2925 2924 2924 2925 2925 2926 2929 2928 2929 2932 2934 2936 2938 2939 2941 2943 2944 2946 2949 2950 2951 2953 2955 2957 2958 2960 2963
2956 2954 2952 2950 2947 2945 2943 2941 2939 2937 2936 2935 2933 2932 2931 2929 2928 2926 2926 2927 2926 2928 2929 2928 2926 2926 2927 2930 2931 2932 2932 2933 2935 2937 2938 2941 2943 2944 2945 2947 2949 2948 2950
2957 2955 2953 2951 2949 2947 2945 2942 2940 2938 2937 2935 2933 2932 2931 2929 2928 2927 2926 2926 2926 2927 2926 2926 2924 2924 2925 2926 2927 2926 2928 2929 2930 2931 2932 2934 2935 2937 2939 2941 2943 2944 2946
2958 2956 2954 2951 2949 2947 2945 2942 2941 2939 2937 2935 2933 2932 2931 2929 2927 2926 2925 2925 2924 2924 2924 2923 2922 2922 2923 2924 2924 2924 2925 2925 2925 2925 2926 2927 2928 2930 2931 2933 2934 2936 2937
2956 2954 2952 2950 2948 2945 2944 2942 2940 2937 2935 2934 2932 2930 2928 2927 2926 2924 2923 2921 2921 2920 2919 2918 2919 2920 2920 2920 2920 2920 2920 2921 2921 2921 2921 2922 2923 2924 2925 2927 2929 2930 2931
2958 2954 2951 2948 2945 2943 2940 2938 2936 2933 2931 2930 2928 2926 2925 2923 2920 2919 2918 2917 2916 2915 2915 2914 2913 2914 2915 2915 2915 2915 2916 2916 2916 2916 2917 2918 2918 2920 2920 2922 2922 2924 2925
2956 2953 2950 2947 2944 2940 2937 2933 2929 2926 2923 2922 2921 2919 2918 2917 2915 2914 2912 2912 2911 2910 2909 2909 2909 2909 2909 2908 2908 2909 2909 2910 2910 2910 2911 2911 2912 2913 2914 2916 2916 2918 2920
2951 2948 2945 2941 2938 2935 2932 2928 2925 2921 2918 2915 2913 2911 2909 2908 2907 2906 2905 2904 2903 2904 2904 2903 2903 2903 2903 2903 2902 2902 2902 2903 2904 2904 2905 2906 2908 2909 2909 2910 2911 2913 2915
2945 2941 2937 2934 2930 2927 2924 2920 2917 2914 2911 2909 2905 2903 2901 2898 2897 2896 2896 2896 2895 2895 2895 2895 2895 2895 2896 2896 2896 2896 2896 2897 2897 2897 2898 2900 2902 2903 2903 2904 2906 2907 2908
2937 2933 2929 2925 2922 2918 2916 2912 2909 2907 2903 2900 2897 2895 2893 2891 2889 2887 2886 2886 2885 2886 2885 2885 2886 2886 2887 2887 2888 2889 2889 2890 2890 2891 2892 2892 2893 2894 2896 2897 2898 2899 2901
2931 2926 2923 2918 2914 2911 2908 2905 2902 2899 2896 2893 2890 2888 2885 2883 2881 2880 2878 2877 2876 2876 2875 2875 2876 2876 2877 2878 2878 2880 2880 2881 2882 2883 2883 2884 2886 2886 2887 2888 2889 2891 2891
2924 2920 2916 2912 2908 2905 2901 2898 2894 2891 2889 2886 2883 2881 2878 2876 2874 2872 2871 2870 2869 2868 2867 2866 2866 2867 2867 2868 2869 2870 2871 2872 2873 2874 2875 2876 2877 2878 2879 2879 2881 2883 2883
2917 2913 2908 2904 2900 2897 2893 2890 2887 2884 2881 2878 2876 2873 2871 2869 2867 2865 2862 2862 2861 2860 2859 2858 2858 2858 2859 2859 2860 2861 2862 2863 2864 2864 2866 2867 2868 2869 2870 2872 2872 2874 2874